[[{"header":{"parameterUnit":"m.s-1","parameterCategory":1,"la1":30.2992,"la2":30.254,"lo1":-89.0895,"lo2":-89.0443,"dy":0.0025,"dx":0.0025,"nx":19,"ny":19,"refTime":"2026-05-16T09:00:00:Z","depth":0,"parameterNumber":2,"parameterNumberName":"U-component_of_WINDS"},"data":[0,0,0,-2.3917,-2.3919,-2.3982,-2.3982,-2.4071,-2.4072,0,0,0,0,0,0,0,0,0,0,0,-2.3904,-2.3905,-2.3917,-2.3919,-2.3982,-2.3982,-2.4071,-2.4072,0,0,0,0,0,0,0,0,0,0,0,-2.3903,-2.3904,-2.3905,-2.3919,-2.3982,-2.3982,-2.407,-2.402,0,0,0,0,0,0,0,0,0,0,-2.3958,-2.395,-2.3904,-2.3905,-2.392,-2.3982,-2.3982,-2.4017,-2.4023,-2.4046,0,-2.4067,0,-2.4071,-2.4078,-2.4078,0,0,0,-2.3915,-2.3945,-2.3958,-2.3906,-2.392,-2.3981,-2.3952,-2.4021,-2.4027,-2.4054,-2.4068,-2.4071,-2.4072,-2.4079,-2.4079,-2.4221,-2.4222,0,0,-2.3912,-2.3918,-2.3953,-2.3962,-2.3953,-2.395,-2.3954,-2.4024,-2.4041,-2.4069,-2.4073,-2.4074,-2.4079,-2.408,-2.4221,-2.4222,0,0,0,-2.3904,-2.3916,-2.3926,-2.3959,-2.3969,-2.3952,-2.3957,-2.4038,-2.4041,-2.4074,-2.4075,-2.408,-2.4081,-2.422,-2.4221,-2.4267,0,0,0,-2.3902,-2.3911,-2.3925,-2.3929,-2.3968,-2.4004,-2.3969,-2.4036,-2.4044,-2.4074,-2.408,-2.4082,-2.4219,-2.422,-2.4264,-2.4288,0,0,0,-2.3898,-2.3911,-2.3921,-2.3929,-2.3956,-2.4003,-2.401,-2.4037,-2.4044,-2.4078,-2.4082,-2.4218,-2.422,-2.4261,-2.4283,-2.4327,0,0,0,-2.3896,-2.3962,-2.3922,-2.3997,-2.3956,-2.4031,-2.4009,-2.4065,-2.41,-2.408,-2.4219,-2.4221,-2.426,-2.4281,-2.4324,-2.4364,-2.4381,0,0,-2.3983,-2.3973,-2.4017,-2.3983,-2.4067,-2.4021,-2.4112,-2.4139,-2.4137,-2.4194,-2.4197,-2.4265,-2.4283,-2.4326,-2.4478,-2.4492,0,0,0,-2.4047,-2.4078,-2.4099,-2.4132,-2.4154,-2.4174,-2.4186,-2.4196,-2.4244,-2.4167,-2.4293,-2.4303,-2.4328,-2.4347,-2.4359,-2.438,-2.423,-2.423,-2.423,-2.4179,-2.4173,-2.4244,-2.4245,-2.4278,-2.4289,-2.4315,-2.433,-2.4315,-2.4345,-2.4361,-2.4454,-2.4477,-2.4485,-2.4507,-2.4383,-2.4383,-2.4383,-2.4383,-2.4307,-2.435,-2.4327,-2.4388,-2.4381,-2.4432,-2.4446,-2.4433,-2.448,-2.4441,-2.4463,-2.4421,-2.4501,-2.4519,-2.4386,-2.4386,-2.4385,-2.4385,-2.4385,-2.4393,-2.4412,-2.4422,-2.4469,-2.4506,-2.4505,-2.4551,-2.4543,-2.4536,-2.4558,-2.4574,-2.4573,-2.4571,-2.4566,-2.4567,-2.4567,-2.4567,-2.4567,-2.4568,-2.4477,-2.4487,-2.4527,-2.4555,-2.4575,-2.46,-2.4612,-2.4632,-2.4651,-2.4642,-2.4642,-2.4623,-2.451,-2.4481,-2.4573,-2.4572,-2.4571,-2.4571,-2.457,-2.4608,-2.4577,-2.4637,-2.4657,-2.4689,-2.4726,-2.4716,-2.4756,-2.4771,-2.4794,-2.4771,-2.4689,-2.4678,-2.4668,-2.4644,-2.4772,-2.4772,-2.4772,-2.4772,-2.468,-2.4673,-2.4733,-2.4765,-2.4796,-2.4792,-2.4861,-2.4871,-2.4877,-2.4886,-2.4866,-2.4834,-2.4825,-2.4819,-2.4807,-2.4784,-2.4945,-2.4945,-2.4945,-2.4759,-2.4756,-2.4815,-2.482,-2.4844,-2.4865,-2.4929,-2.4968,-2.4968,-2.4952,-2.4892,-2.4885,-2.4833,-2.4817,-2.4799,-2.4779,-2.4738,0,0]},{"header":{"parameterUnit":"m.s-1","parameterCategory":1,"la1":30.2992,"la2":30.254,"lo1":-89.0895,"lo2":-89.0443,"dy":0.0025,"dx":0.0025,"nx":19,"ny":19,"refTime":"2026-05-16T09:00:00:Z","depth":0,"parameterNumber":3,"parameterNumberName":"V-component_of_WINDS"},"data":[0,0,0,3.6573,3.6575,3.6642,3.6643,3.6742,3.6743,0,0,0,0,0,0,0,0,0,0,0,3.6563,3.6564,3.6573,3.6575,3.6642,3.6643,3.6742,3.6743,0,0,0,0,0,0,0,0,0,0,0,3.6562,3.6563,3.6565,3.6575,3.6642,3.6643,3.6741,3.6685,0,0,0,0,0,0,0,0,0,0,3.6617,3.6618,3.6563,3.6565,3.6576,3.6642,3.6643,3.6682,3.6689,3.6717,0,3.6747,0,3.6747,3.675,3.6751,0,0,0,3.6567,3.6612,3.6622,3.6565,3.6576,3.6642,3.661,3.6686,3.6693,3.6726,3.6748,3.6751,3.6748,3.6751,3.6752,3.6945,3.6947,0,0,3.6563,3.658,3.6617,3.6627,3.662,3.6608,3.6612,3.669,3.6715,3.6749,3.6753,3.675,3.6752,3.6753,3.6944,3.6946,0,0,0,3.6558,3.6577,3.6585,3.6624,3.6635,3.661,3.6615,3.6711,3.6712,3.6754,3.6751,3.6753,3.6754,3.6943,3.6945,3.7022,0,0,0,3.6555,3.6574,3.6583,3.6594,3.6634,3.6674,3.6635,3.6707,3.6715,3.6751,3.6753,3.6755,3.6941,3.6944,3.7017,3.7056,0,0,0,3.6555,3.6574,3.6587,3.6595,3.6625,3.6673,3.6678,3.6708,3.6714,3.6751,3.6755,3.694,3.6943,3.7013,3.7048,3.711,0,0,0,3.6559,3.6656,3.6589,3.6696,3.6625,3.6722,3.6677,3.6749,3.679,3.6753,3.6942,3.6944,3.7011,3.7043,3.7105,3.7163,3.7189,0,0,3.669,3.6672,3.6734,3.6676,3.679,3.671,3.6834,3.6856,3.6844,3.6912,3.6916,3.7019,3.7047,3.7109,3.7336,3.7358,0,0,0,3.6781,3.6825,3.6852,3.6893,3.6913,3.6932,3.6934,3.6942,3.6998,3.6883,3.7059,3.7075,3.711,3.7137,3.7155,3.7183,3.6958,3.6958,3.6958,3.6989,3.697,3.7069,3.7058,3.7098,3.7099,3.7128,3.7139,3.7107,3.7149,3.7168,3.7309,3.7341,3.7354,3.7383,3.7199,3.7199,3.72,3.72,3.7178,3.7236,3.7192,3.7273,3.7251,3.7318,3.7322,3.7297,3.7354,3.7293,3.7323,3.7255,3.7378,3.7402,3.7205,3.7204,3.7204,3.7203,3.7203,3.7309,3.7334,3.7343,3.7399,3.7445,3.7429,3.7487,3.7465,3.7445,3.7475,3.7491,3.7489,3.7483,3.7484,3.7485,3.7485,3.7486,3.7486,3.7486,3.7441,3.7449,3.7501,3.7531,3.7553,3.758,3.7582,3.7603,3.762,3.7599,3.7599,3.7562,3.7395,3.7352,3.7494,3.7493,3.7492,3.7491,3.749,3.7635,3.7588,3.7668,3.7691,3.7723,3.7768,3.774,3.7785,3.7799,3.7827,3.7784,3.7666,3.7645,3.763,3.7594,3.779,3.779,3.779,3.779,3.7744,3.7733,3.7808,3.7846,3.7881,3.7864,3.7952,3.7954,3.7948,3.7955,3.7924,3.7875,3.7862,3.7849,3.7829,3.7795,3.8038,3.8038,3.8038,3.7861,3.7852,3.7932,3.7927,3.795,3.7969,3.8051,3.8094,3.8078,3.8048,3.7959,3.7949,3.787,3.7846,3.7811,3.7782,3.7719,0,0]}]]